Location: Schommer Observatory
(40.5200°N, 74.4500°W)
Time: 22:39:23
(UTC-04:00)

ISS - Pass Details

Date: 19 May 2018
Orbit: 402 x 407 km, 51.6° (Epoch: 26 May)

Event Time Altitude Azimuth Distance (km) Brightness Sun altitude
Rises 04:17:13 0° 311° (NW) 2,318 -0.1 -13.5°
Reaches altitude 10° 04:19:25 10° 321° (NW) 1,457 -1.0 -13.1°
Maximum altitude 04:22:26 34° 28° (NNE) 684 -2.0 -12.7°
Drops below altitude 10° 04:25:27 10° 96° (E) 1,452 -0.4 -12.3°
Sets 04:27:38 0° 106° (ESE) 2,309 0.5 -12.0°
